Weather Roundup
Issued by NWS Chicago, IL

Home | Current Version | Previous Version | Text Only | Print | Product List | Glossary On
Versions: 1 2 3 4 5 6 7 8 9 10 11 12 13 14 15 16 17 18 19 20 21 22 23 24 25 26 27 28 29 30 31 32 33 34 35 36 37 38 39 40 41 42 43 44 45 46 47 48 49 50
000
NZUS59 KLOT 250010
HRRLOT

CHICAGO AREA WEATHER ROUNDUP
NATIONAL WEATHER SERVICE CHICAGO/ROMEOVILLE IL
700 PM CDT THU APR 24 2014

NOTE: "FAIR" INDICATES FEW OR NO CLOUDS BELOW 12,000 FEET WITH NO
SIGNIFICANT WEATHER AND/OR OBSTRUCTIONS TO VISIBILITY.

* THESE STATIONS ARE NOT UNDER NWS QUALITY CONTROL. THEY ALSO MAY NOT
  REPORT WEATHER SUCH AS PRECIPITATION OR FOG.

ILZ005-006-012>014-019>023-250100-
NORTHEAST ILLINOIS

CITY           SKY/WX    TMP DP  RH WIND       PRES   REMARKS
OHARE          CLOUDY    61  28  28 SE17      29.71F
6HR MIN TEMP:  61; 6HR MAX TEMP:  64;

MIDWAY         CLOUDY    62  29  28 SE14      29.72F
6HR MIN TEMP:  60; 6HR MAX TEMP:  64;

AURORA         LGT RAIN  62  37  39 SE15G23   29.70F
6HR MIN TEMP:  60; 6HR MAX TEMP:  68; 6HR PCP: TRACE;

LANSING*       CLOUDY    60  27  28 SE18      29.71F
JOLIET*        CLOUDY    62  34  34 SE8       29.70F
WAUKEGAN       LGT RAIN  46  34  62 E8        29.73F
6HR MIN TEMP:  46; 6HR MAX TEMP:  55; 6HR PCP: TRACE;

DUPAGE AIRPORT LGT RAIN  61  34  36 SE15G24   29.70F
6HR MIN TEMP:  60; 6HR MAX TEMP:  68; 6HR PCP: TRACE;

WHEELING       CLOUDY    62  28  27 SE12      29.73F
6HR MIN TEMP:  61; 6HR MAX TEMP:  64;

KANKAKEE*      CLOUDY    63  38  40 SE12      29.70F
MORRIS*        CLOUDY    64  30  28 SE10      29.70R
LEWIS AIRPORT* CLOUDY    61  32  34 SE10      29.71S
NORTHERLY IS     N/A     55  36  48 SE13        N/A
$$

WIZ051-052-058>065-066-070>072-250100-
SOUTHEAST WISCONSIN

CITY           SKY/WX    TMP DP  RH WIND       PRES   REMARKS
MILWAUKEE      LGT RAIN  46  33  60 SE12      29.77S
6HR MIN TEMP:  46; 6HR MAX TEMP:  52; 6HR PCP: TRACE;

KENOSHA*       LGT RAIN  48  33  56 E13       29.74F
RACINE*        LGT RAIN  47  32  56 SE15G22   29.77F
BURLINGTON     CLOUDY    53  32  44 MISG      29.72F
WAUKESHA       CLOUDY    50  30  46 E16       29.75F
WEST BEND      LGT RAIN  45  32  61 SE10      29.76F
$$

INZ001>003-010>013-019-020-250100-
NORTHWEST INDIANA

CITY           SKY/WX    TMP DP  RH WIND       PRES   REMARKS
GARY*          CLOUDY    63  27  25 SE13G24   29.74S
MICHIGAN CITY* NOT AVBL
RENSSELAER*    NOT AVBL
VALPARAISO     CLOUDY    58  23  26 SE18G24   29.74F
$$

LMZ740>746-250100-
SOUTHERN LAKE MICHIGAN

STATION/POSITION TIME  SKY/WX   TEMP WIND        PRES    VSBY
                                AIR  DIR/SP/G
                 (UTC)          (F)  (DEG/KT/KT) (MB)    (MI)
HARRISON CRIB    0000            53  140/ 15/ 17   N/A
BURNHAM HARBOR   0000            53  120/  6/ 13   N/A
CALUMET HARBOR   0000            61  140/ 12/ 19 1007.4F
BURNS HARBOR     NOT AVBL
MICHIGAN CITY    0000            59  110/ 19/ 26   N/A
$$

ABBREVIATIONS USED IN REMARKS
   TC - TEMPERATURE IN CELSIUS
  WCI - WIND CHILL INDEX
   HX - HEAT INDEX
  VSB - VISIBILITY
$$



USA.gov is the U.S. government's official web portal to all federal, state and local government web resources and services.